Weather History for KABE - October, 2013

Change the Weather History Date:

Monday, October 7, 2013

  Actual Average Record
Temperature  
Mean Temperature 63 °F 55 °F  
Max Temperature 76 °F 67 °F 87 °F (1946)
Min Temperature 49 °F 44 °F 32 °F (1958)
Degree Days  
Heating Degree Days 2 10  
Month to date heating degree days 2 63  
Since 1 July heating degree days 126 178  
Cooling Degree Days 0 0  
Month to date cooling degree days 22 3  
Year to date cooling degree days 925 753  
Growing Degree Days 14 (Base 50)    
Moisture  
Dew Point 61 °F    
Average Humidity 80    
Maximum Humidity 93    
Minimum Humidity 67    
Precipitation  
Precipitation 1.33 in 0.14 in 2.34 in (1951)
Month to date precipitation 1.50 0.99  
Year to date precipitation 38.42 35.38  
Snow  
Snow 0.00 in 0.00 in T in (1951)
Month to date snowfall 0.0 0.0  
Since 1 July snowfall 0.0 0.0  
Since 1 September snowfall 0.0 0.0  
Snow Depth 0.00 in    
Sea Level Pressure  
Sea Level Pressure 29.86 in    
Wind  
Wind Speed 9 mph (SW)    
Max Wind Speed 25 mph    
Max Gust Speed 36 mph    
Visibility 7 miles    
Events Fog , Rain    
T = Trace of Precipitation, MM = Missing Value Source: NWS Daily Summary

Daily Weather History Graph

Daily Weather History Graph

Search for Another Location

Airport or City:

Trip Planner

Search our weather history database for the weather conditions in past years. The results will help you decide how hot, cold, wet, or windy it might be!

Date:

Astronomy

Oct. 07, 2013 Rise Set
Actual Time 7:04 AM EDT 6:33 PM EDT
Civil Twilight 6:37 AM EDT 7:01 PM EDT
Nautical Twilight 6:05 AM EDT 7:32 PM EDT
Astronomical Twilight 5:33 AM EDT 8:04 PM EDT
Moon 9:52 AM EDT (10/7) 8:15 PM EDT (10/7)
Length of Visible Light 12h 23m
Length of Day
11h 29m
Waxing Crescent, 8% of the Moon is Illuminated
Oct 7
Waxing Crescent
Oct 11
First Quarter
Oct 18
Full
Oct 26
Last Quarter
Nov 3
New

Hourly Weather History & Observations

Time (EDT) Temp. Dew Point Humidity Pressure Visibility Wind Dir Wind Speed Gust Speed Precip Events Conditions
12:13 AM 69.8 °F 64.4 °F 83% 29.98 in 6.0 mi SE 6.9 mph - N/A   Scattered Clouds
12:51 AM 68.0 °F 64.0 °F 87% 29.97 in 7.0 mi Variable 4.6 mph - N/A   Clear
1:51 AM 68.0 °F 63.0 °F 84% 29.96 in 9.0 mi SE 9.2 mph - N/A   Clear
2:51 AM 68.0 °F 64.0 °F 87% 29.95 in 10.0 mi South 10.4 mph - N/A   Mostly Cloudy
3:51 AM 69.1 °F 64.9 °F 87% 29.92 in 10.0 mi South 9.2 mph - N/A   Overcast
4:51 AM 70.0 °F 64.9 °F 84% 29.91 in 10.0 mi SSE 6.9 mph - N/A   Overcast
5:51 AM 70.0 °F 64.9 °F 84% 29.90 in 10.0 mi Variable 4.6 mph - N/A   Overcast
6:51 AM 71.1 °F 64.9 °F 81% 29.89 in 10.0 mi South 9.2 mph - N/A   Overcast
7:51 AM 71.1 °F 64.9 °F 81% 29.86 in 10.0 mi South 13.8 mph 20.7 mph N/A   Mostly Cloudy
8:51 AM 72.0 °F 64.9 °F 78% 29.85 in 10.0 mi South 12.7 mph 21.9 mph N/A   Overcast
9:51 AM 70.0 °F 66.0 °F 87% 29.84 in 3.0 mi South 9.2 mph 19.6 mph 0.00 in Rain Light Rain
10:51 AM 72.0 °F 68.0 °F 87% 29.80 in 5.0 mi South 11.5 mph 20.7 mph 0.01 in Rain Light Rain
11:15 AM 73.4 °F 68.0 °F 83% 29.79 in 10.0 mi South 13.8 mph 24.2 mph 0.00 in   Overcast
11:51 AM 75.0 °F 68.0 °F 79% 29.76 in 10.0 mi South 16.1 mph - 0.00 in   Overcast
12:51 PM 73.0 °F 69.1 °F 87% 29.73 in 1.8 mi SSW 21.9 mph 32.2 mph 0.02 in Rain Heavy Rain
1:00 PM 71.6 °F 69.8 °F 94% 29.76 in 0.2 mi SW 19.6 mph 33.4 mph 0.24 in Fog , Rain Heavy Rain
1:06 PM 69.8 °F 69.8 °F 100% 29.76 in 0.2 mi West 19.6 mph 29.9 mph 0.57 in Fog , Rain Heavy Rain
1:16 PM 68.0 °F 66.2 °F 94% 29.75 in 1.2 mi SW 13.8 mph 27.6 mph 0.82 in Rain Light Rain
1:21 PM 69.8 °F 66.2 °F 88% 29.74 in 8.0 mi SSW 10.4 mph 23.0 mph 0.82 in Rain Light Rain
1:32 PM 69.8 °F 66.2 °F 88% 29.78 in 0.8 mi SW 15.0 mph 35.7 mph 0.82 in Rain Heavy Rain
1:45 PM 68.0 °F 64.4 °F 88% 29.77 in 2.0 mi SW 15.0 mph 25.3 mph 1.04 in Rain Heavy Rain
1:51 PM 68.0 °F 64.9 °F 90% 29.76 in 3.0 mi SW 13.8 mph 23.0 mph 1.06 in Rain Rain
2:03 PM 68.0 °F 64.4 °F 88% 29.75 in 8.0 mi SW 11.5 mph - 0.01 in Rain Light Rain
2:31 PM 68.0 °F 64.4 °F 88% 29.79 in 6.0 mi SSW 9.2 mph - 0.04 in Rain Light Rain
2:51 PM 68.0 °F 64.0 °F 87% 29.80 in 6.0 mi SW 9.2 mph - 0.07 in Rain Light Rain
3:01 PM 64.4 °F 60.8 °F 88% 29.81 in 1.8 mi WNW 6.9 mph 18.4 mph 0.04 in Rain Heavy Rain
3:15 PM 62.6 °F 57.2 °F 82% 29.82 in 2.0 mi WNW 15.0 mph 23.0 mph 0.09 in Rain Rain
3:24 PM 62.6 °F 57.2 °F 82% 29.84 in 3.0 mi West 10.4 mph 19.6 mph 0.10 in Rain Light Rain
3:51 PM 60.1 °F 55.0 °F 83% 29.83 in 7.0 mi NW 8.1 mph 19.6 mph 0.13 in Rain Light Rain
4:16 PM 57.2 °F 53.6 °F 88% 29.88 in 9.0 mi West 10.4 mph - 0.04 in Rain Light Rain
4:51 PM 59.0 °F 55.0 °F 87% 29.88 in 10.0 mi WSW 4.6 mph - 0.04 in   Overcast
5:51 PM 59.0 °F 55.0 °F 87% 29.90 in 10.0 mi WSW 4.6 mph - N/A   Overcast
6:51 PM 57.9 °F 55.0 °F 90% 29.92 in 10.0 mi SW 4.6 mph - N/A   Mostly Cloudy
7:51 PM 57.0 °F 54.0 °F 89% 29.94 in 10.0 mi WSW 5.8 mph - N/A   Clear
8:51 PM 57.9 °F 48.0 °F 70% 29.97 in 10.0 mi West 9.2 mph - N/A   Clear
9:51 PM 57.0 °F 46.9 °F 69% 29.98 in 10.0 mi West 6.9 mph - N/A   Clear
10:51 PM 54.0 °F 46.0 °F 75% 29.99 in 10.0 mi WSW 4.6 mph - N/A   Clear
11:51 PM 50.0 °F 44.1 °F 80% 30.02 in 10.0 mi SW 3.5 mph - N/A   Clear